Year,Month,Day,Hour,Minute,Value (Times are PST for temperature in C)
2013,07,06,00,00,16.10
2013,07,06,00,01,16.10
2013,07,06,00,02,16.10
2013,07,06,00,03,16.10
2013,07,06,00,04,16.10
2013,07,06,00,05,16.10
2013,07,06,00,06,16.10
2013,07,06,00,07,16.10
2013,07,06,00,08,16.10
2013,07,06,00,09,16.10
2013,07,06,00,10,16.00
2013,07,06,00,11,16.00
2013,07,06,00,12,16.00
2013,07,06,00,13,16.00
2013,07,06,00,14,15.90
2013,07,06,00,15,15.90
2013,07,06,00,16,15.90
2013,07,06,00,17,15.90
2013,07,06,00,18,15.80
2013,07,06,00,19,15.80
2013,07,06,00,20,15.80
2013,07,06,00,21,15.80
2013,07,06,00,22,15.80
2013,07,06,00,23,15.80
2013,07,06,00,24,15.70
2013,07,06,00,25,15.70
2013,07,06,00,26,15.70
2013,07,06,00,27,15.70
2013,07,06,00,28,15.70
2013,07,06,00,29,15.70
2013,07,06,00,30,15.70
2013,07,06,00,31,15.70
2013,07,06,00,32,15.70
2013,07,06,00,33,15.60
2013,07,06,00,34,15.60
2013,07,06,00,35,15.60
2013,07,06,00,36,15.60
2013,07,06,00,37,15.70
2013,07,06,00,38,15.70
2013,07,06,00,39,15.70
2013,07,06,00,40,15.70
2013,07,06,00,41,15.70
2013,07,06,00,42,15.60
2013,07,06,00,43,15.60
2013,07,06,00,44,15.60
2013,07,06,00,45,15.60
2013,07,06,00,46,15.60
2013,07,06,00,47,15.60
2013,07,06,00,48,15.60
2013,07,06,00,49,15.50
2013,07,06,00,50,15.50
2013,07,06,00,51,15.50
2013,07,06,00,52,15.50
2013,07,06,00,53,15.50
2013,07,06,00,54,15.50
2013,07,06,00,55,15.50
2013,07,06,00,56,15.50
2013,07,06,00,57,15.50
2013,07,06,00,58,15.40
2013,07,06,00,59,15.40
2013,07,06,01,00,15.40
2013,07,06,01,01,15.40
2013,07,06,01,02,15.40
2013,07,06,01,03,15.40
2013,07,06,01,04,15.30
2013,07,06,01,05,15.30
2013,07,06,01,06,15.30
2013,07,06,01,07,15.30
2013,07,06,01,08,15.30
2013,07,06,01,09,15.30
2013,07,06,01,10,15.30
2013,07,06,01,11,15.30
2013,07,06,01,12,15.30
2013,07,06,01,13,15.30
2013,07,06,01,14,15.30
2013,07,06,01,15,15.30
2013,07,06,01,16,15.20
2013,07,06,01,17,15.20
2013,07,06,01,18,15.20
2013,07,06,01,19,15.20
2013,07,06,01,20,15.20
2013,07,06,01,21,15.20
2013,07,06,01,22,15.20
2013,07,06,01,23,15.10
2013,07,06,01,24,15.10
2013,07,06,01,25,15.10
2013,07,06,01,26,15.10
2013,07,06,01,27,15.10
2013,07,06,01,28,15.10
2013,07,06,01,29,15.10
2013,07,06,01,30,15.10
2013,07,06,01,31,15.10
2013,07,06,01,32,15.10
2013,07,06,01,33,15.10
2013,07,06,01,34,15.10
2013,07,06,01,35,15.10
2013,07,06,01,36,15.00
2013,07,06,01,37,15.00
2013,07,06,01,38,15.00
2013,07,06,01,39,15.00
2013,07,06,01,40,15.00
2013,07,06,01,41,15.00
2013,07,06,01,42,14.90
2013,07,06,01,43,14.90
2013,07,06,01,44,14.90
2013,07,06,01,45,14.90
2013,07,06,01,46,14.90
2013,07,06,01,47,14.90
2013,07,06,01,48,14.90
2013,07,06,01,49,14.90
2013,07,06,01,50,14.90
2013,07,06,01,51,14.90
2013,07,06,01,52,14.90
2013,07,06,01,53,14.90
2013,07,06,01,54,14.90
2013,07,06,01,55,14.90
2013,07,06,01,56,14.90
2013,07,06,01,57,14.80
2013,07,06,01,58,14.80
2013,07,06,01,59,14.80
2013,07,06,02,00,14.80
2013,07,06,02,01,14.80
2013,07,06,02,02,14.80
2013,07,06,02,03,14.80
2013,07,06,02,04,14.80
2013,07,06,02,05,14.80
2013,07,06,02,06,14.80
2013,07,06,02,07,14.80
2013,07,06,02,08,14.80
2013,07,06,02,09,14.80
2013,07,06,02,10,14.80
2013,07,06,02,11,14.80
2013,07,06,02,12,14.70
2013,07,06,02,13,14.70
2013,07,06,02,14,14.70
2013,07,06,02,15,14.70
2013,07,06,02,16,14.70
2013,07,06,02,17,14.70
2013,07,06,02,18,14.70
2013,07,06,02,19,14.70
2013,07,06,02,20,14.70
2013,07,06,02,21,14.70
2013,07,06,02,22,14.70
2013,07,06,02,23,14.70
2013,07,06,02,24,14.70
2013,07,06,02,25,14.70
2013,07,06,02,26,14.70
2013,07,06,02,27,14.70
2013,07,06,02,28,14.60
2013,07,06,02,29,14.60
2013,07,06,02,30,14.60
2013,07,06,02,31,14.60
2013,07,06,02,32,14.50
2013,07,06,02,33,14.50
2013,07,06,02,34,14.50
2013,07,06,02,35,14.50
2013,07,06,02,36,14.40
2013,07,06,02,37,14.40
2013,07,06,02,38,14.40
2013,07,06,02,39,14.40
2013,07,06,02,40,14.40
2013,07,06,02,41,14.30
2013,07,06,02,42,14.30
2013,07,06,02,43,14.30
2013,07,06,02,44,14.30
2013,07,06,02,45,14.30
2013,07,06,02,46,14.30
2013,07,06,02,47,14.30
2013,07,06,02,48,14.30
2013,07,06,02,49,14.30
2013,07,06,02,50,14.20
2013,07,06,02,51,14.20
2013,07,06,02,52,14.10
2013,07,06,02,53,14.10
2013,07,06,02,54,14.00
2013,07,06,02,55,13.90
2013,07,06,02,56,13.90
2013,07,06,02,57,13.80
2013,07,06,02,58,13.80
2013,07,06,02,59,13.70
2013,07,06,03,00,13.70
2013,07,06,03,01,13.70
2013,07,06,03,02,13.60
2013,07,06,03,03,13.60
2013,07,06,03,04,13.60
2013,07,06,03,05,13.50
2013,07,06,03,06,13.50
2013,07,06,03,07,13.40
2013,07,06,03,08,13.40
2013,07,06,03,09,13.40
2013,07,06,03,10,13.30
2013,07,06,03,11,13.30
2013,07,06,03,12,13.30
2013,07,06,03,13,13.30
2013,07,06,03,14,13.30
2013,07,06,03,15,13.30
2013,07,06,03,16,13.20
2013,07,06,03,17,13.20
2013,07,06,03,18,13.20
2013,07,06,03,19,13.10
2013,07,06,03,20,13.10
2013,07,06,03,21,13.00
2013,07,06,03,22,12.90
2013,07,06,03,23,12.90
2013,07,06,03,24,12.80
2013,07,06,03,25,12.80
2013,07,06,03,26,12.70
2013,07,06,03,27,12.70
2013,07,06,03,28,12.60
2013,07,06,03,29,12.60
2013,07,06,03,30,12.60
2013,07,06,03,31,12.50
2013,07,06,03,32,12.50
2013,07,06,03,33,12.40
2013,07,06,03,34,12.40
2013,07,06,03,35,12.40
2013,07,06,03,36,12.30
2013,07,06,03,37,12.30
2013,07,06,03,38,12.20
2013,07,06,03,39,12.10
2013,07,06,03,40,12.10
2013,07,06,03,41,12.10
2013,07,06,03,42,12.00
2013,07,06,03,43,12.00
2013,07,06,03,44,11.90
2013,07,06,03,45,11.90
2013,07,06,03,46,11.80
2013,07,06,03,47,11.80
2013,07,06,03,48,11.80
2013,07,06,03,49,11.80
2013,07,06,03,50,11.70
2013,07,06,03,51,11.70
2013,07,06,03,52,11.70
2013,07,06,03,53,11.70
2013,07,06,03,54,11.60
2013,07,06,03,55,11.60
2013,07,06,03,56,11.60
2013,07,06,03,57,11.60
2013,07,06,03,58,11.60
2013,07,06,03,59,11.50
2013,07,06,04,00,11.50
2013,07,06,04,01,11.50
2013,07,06,04,02,11.40
2013,07,06,04,03,11.40
2013,07,06,04,04,11.40
2013,07,06,04,05,11.40
2013,07,06,04,06,11.30
2013,07,06,04,07,11.30
2013,07,06,04,08,11.30
2013,07,06,04,09,11.30
2013,07,06,04,10,11.20
2013,07,06,04,11,11.20
2013,07,06,04,12,11.20
2013,07,06,04,13,11.10
2013,07,06,04,14,11.10
2013,07,06,04,15,11.10
2013,07,06,04,16,11.10
2013,07,06,04,17,11.10
2013,07,06,04,18,11.00
2013,07,06,04,19,11.00
2013,07,06,04,20,11.00
2013,07,06,04,21,11.00
2013,07,06,04,22,10.90
2013,07,06,04,23,10.90
2013,07,06,04,24,10.90
2013,07,06,04,25,10.90
2013,07,06,04,26,10.90
2013,07,06,04,27,10.90
2013,07,06,04,28,10.80
2013,07,06,04,29,10.80
2013,07,06,04,30,10.80
2013,07,06,04,31,10.80
2013,07,06,04,32,10.80
2013,07,06,04,33,10.80
2013,07,06,04,34,10.80
2013,07,06,04,35,10.70
2013,07,06,04,36,10.70
2013,07,06,04,37,10.70
2013,07,06,04,38,10.70
2013,07,06,04,39,10.70
2013,07,06,04,40,10.60
2013,07,06,04,41,10.60
2013,07,06,04,42,10.60
2013,07,06,04,43,10.60
2013,07,06,04,44,10.60
2013,07,06,04,45,10.50
2013,07,06,04,46,10.50
2013,07,06,04,47,10.50
2013,07,06,04,48,10.40
2013,07,06,04,49,10.40
2013,07,06,04,50,10.40
2013,07,06,04,51,10.40
2013,07,06,04,52,10.40
2013,07,06,04,53,10.40
2013,07,06,04,54,10.30
2013,07,06,04,55,10.30
2013,07,06,04,56,10.30
2013,07,06,04,57,10.30
2013,07,06,04,58,10.30
2013,07,06,04,59,10.30
2013,07,06,05,00,10.30
2013,07,06,05,01,10.20
2013,07,06,05,02,10.20
2013,07,06,05,03,10.20
2013,07,06,05,04,10.20
2013,07,06,05,05,10.20
2013,07,06,05,06,10.20
2013,07,06,05,07,10.10
2013,07,06,05,08,10.10
2013,07,06,05,09,10.10
2013,07,06,05,10,10.10
2013,07,06,05,11,10.10
2013,07,06,05,12,10.10
2013,07,06,05,13,10.10
2013,07,06,05,14,10.00
2013,07,06,05,15,10.00
2013,07,06,05,16,10.00
2013,07,06,05,17,9.90
2013,07,06,05,18,9.90
2013,07,06,05,19,9.90
2013,07,06,05,20,9.90
2013,07,06,05,21,9.90
2013,07,06,05,22,9.90
2013,07,06,05,23,9.90
2013,07,06,05,24,9.90
2013,07,06,05,25,9.80
2013,07,06,05,26,9.80
2013,07,06,05,27,9.80
2013,07,06,05,28,9.80
2013,07,06,05,29,9.80
2013,07,06,05,30,9.80
2013,07,06,05,31,9.70
2013,07,06,05,32,9.70
2013,07,06,05,33,9.70
2013,07,06,05,34,9.70
2013,07,06,05,35,9.70
2013,07,06,05,36,9.70
2013,07,06,05,37,9.70
2013,07,06,05,38,9.70
2013,07,06,05,39,9.70
2013,07,06,05,40,9.70
2013,07,06,05,41,9.60
2013,07,06,05,42,9.60
2013,07,06,05,43,9.60
2013,07,06,05,44,9.60
2013,07,06,05,45,9.60
2013,07,06,05,46,9.60
2013,07,06,05,47,9.60
2013,07,06,05,48,9.60
2013,07,06,05,49,9.60
2013,07,06,05,50,9.50
2013,07,06,05,51,9.50
2013,07,06,05,52,9.50
2013,07,06,05,53,9.50
2013,07,06,05,54,9.50
2013,07,06,05,55,9.50
2013,07,06,05,56,9.50
2013,07,06,05,57,9.50
2013,07,06,05,58,9.40
2013,07,06,05,59,9.40
2013,07,06,06,00,9.40
2013,07,06,06,01,9.40
2013,07,06,06,02,9.40
2013,07,06,06,03,9.40
2013,07,06,06,04,9.40
2013,07,06,06,05,9.40
2013,07,06,06,06,9.40
2013,07,06,06,07,9.40
2013,07,06,06,08,9.40
2013,07,06,06,09,9.40
2013,07,06,06,10,9.30
2013,07,06,06,11,9.30
2013,07,06,06,12,9.30
2013,07,06,06,13,9.30
2013,07,06,06,14,9.30
2013,07,06,06,15,9.30
2013,07,06,06,16,9.30
2013,07,06,06,17,9.30
2013,07,06,06,18,9.30
2013,07,06,06,19,9.30
2013,07,06,06,20,9.30
2013,07,06,06,21,9.30
2013,07,06,06,22,9.30
2013,07,06,06,23,9.30
2013,07,06,06,24,9.30
2013,07,06,06,25,9.30
2013,07,06,06,26,9.30
2013,07,06,06,27,9.30
2013,07,06,06,28,9.30
2013,07,06,06,29,9.30
2013,07,06,06,30,9.30
2013,07,06,06,31,9.30
2013,07,06,06,32,9.30
2013,07,06,06,33,9.30
2013,07,06,06,34,9.30
2013,07,06,06,35,9.30
2013,07,06,06,36,9.30
2013,07,06,06,37,9.30
2013,07,06,06,38,9.30
2013,07,06,06,39,9.30
2013,07,06,06,40,9.30
2013,07,06,06,41,9.30
2013,07,06,06,42,9.30
2013,07,06,06,43,9.30
2013,07,06,06,44,9.30
2013,07,06,06,45,9.40
2013,07,06,06,46,9.40
2013,07,06,06,47,9.40
2013,07,06,06,48,9.40
2013,07,06,06,49,9.40
2013,07,06,06,50,9.50
2013,07,06,06,51,9.50
2013,07,06,06,52,9.60
2013,07,06,06,53,9.70
2013,07,06,06,54,9.70
2013,07,06,06,55,9.80
2013,07,06,06,56,9.90
2013,07,06,06,57,9.90
2013,07,06,06,58,10.00
2013,07,06,06,59,10.10
2013,07,06,07,00,10.10
2013,07,06,07,01,10.20
2013,07,06,07,02,10.30
2013,07,06,07,03,10.40
2013,07,06,07,04,10.50
2013,07,06,07,05,10.60
2013,07,06,07,06,10.70
2013,07,06,07,07,10.80
2013,07,06,07,08,10.80
2013,07,06,07,09,10.90
2013,07,06,07,10,11.00
2013,07,06,07,11,11.10
2013,07,06,07,12,11.20
2013,07,06,07,13,11.20
2013,07,06,07,14,11.30
2013,07,06,07,15,11.40
2013,07,06,07,16,11.50
2013,07,06,07,17,11.60
2013,07,06,07,18,11.70
2013,07,06,07,19,11.80
2013,07,06,07,20,11.80
2013,07,06,07,21,11.90
2013,07,06,07,22,12.00
2013,07,06,07,23,12.10
2013,07,06,07,24,12.20
2013,07,06,07,25,12.30
2013,07,06,07,26,12.30
2013,07,06,07,27,12.40
2013,07,06,07,28,12.40
2013,07,06,07,29,12.50
2013,07,06,07,30,12.60
2013,07,06,07,31,12.60
2013,07,06,07,32,12.70
2013,07,06,07,33,12.70
2013,07,06,07,34,12.80
2013,07,06,07,35,12.80
2013,07,06,07,36,12.90
2013,07,06,07,37,12.90
2013,07,06,07,38,13.00
2013,07,06,07,39,13.00
2013,07,06,07,40,13.00
2013,07,06,07,41,13.10
2013,07,06,07,42,13.10
2013,07,06,07,43,13.10
2013,07,06,07,44,13.10
2013,07,06,07,45,13.10
2013,07,06,07,46,13.10
2013,07,06,07,47,13.10
2013,07,06,07,48,13.10
2013,07,06,07,49,13.10
2013,07,06,07,50,13.10
2013,07,06,07,51,13.20
2013,07,06,07,52,13.20
2013,07,06,07,53,13.20
2013,07,06,07,54,13.20
2013,07,06,07,55,13.30
2013,07,06,07,56,13.30
2013,07,06,07,57,13.30
2013,07,06,07,58,13.30
2013,07,06,07,59,13.40
2013,07,06,08,00,13.40
2013,07,06,08,01,13.40
2013,07,06,08,02,13.40
2013,07,06,08,03,13.40
2013,07,06,08,04,13.40
2013,07,06,08,05,13.40
2013,07,06,08,06,13.50
2013,07,06,08,07,13.60
2013,07,06,08,08,13.60
2013,07,06,08,09,13.70
2013,07,06,08,10,13.70
2013,07,06,08,11,13.80
2013,07,06,08,12,13.80
2013,07,06,08,13,13.90
2013,07,06,08,14,14.00
2013,07,06,08,15,14.00
2013,07,06,08,16,14.10
2013,07,06,08,17,14.20
2013,07,06,08,18,14.20
2013,07,06,08,19,14.30
2013,07,06,08,20,14.30
2013,07,06,08,21,14.40
2013,07,06,08,22,14.40
2013,07,06,08,23,14.40
2013,07,06,08,24,14.50
2013,07,06,08,25,14.50
2013,07,06,08,26,14.60
2013,07,06,08,27,14.60
2013,07,06,08,28,14.70
2013,07,06,08,29,14.70
2013,07,06,08,30,14.80
2013,07,06,08,31,14.80
2013,07,06,08,32,14.90
2013,07,06,08,33,15.00
2013,07,06,08,34,15.10
2013,07,06,08,35,15.20
2013,07,06,08,36,15.30
2013,07,06,08,37,15.30
2013,07,06,08,38,15.40
2013,07,06,08,39,15.40
2013,07,06,08,40,15.50
2013,07,06,08,41,15.60
2013,07,06,08,42,15.60
2013,07,06,08,43,15.70
2013,07,06,08,44,15.70
2013,07,06,08,45,15.70
2013,07,06,08,46,15.80
2013,07,06,08,47,15.80
2013,07,06,08,48,15.80
2013,07,06,08,49,15.90
2013,07,06,08,50,15.90
2013,07,06,08,51,16.00
2013,07,06,08,52,15.90
2013,07,06,08,53,15.90
2013,07,06,08,54,15.90
2013,07,06,08,55,16.00
2013,07,06,08,56,16.00
2013,07,06,08,57,16.10
2013,07,06,08,58,16.20
2013,07,06,08,59,16.30
2013,07,06,09,00,16.40
2013,07,06,09,01,16.40
2013,07,06,09,02,16.50
2013,07,06,09,03,16.50
2013,07,06,09,04,16.50
2013,07,06,09,05,16.40
2013,07,06,09,06,16.40
2013,07,06,09,07,16.40
2013,07,06,09,08,16.40
2013,07,06,09,09,16.40
2013,07,06,09,10,16.40
2013,07,06,09,11,16.50
2013,07,06,09,12,16.60
2013,07,06,09,13,16.70
2013,07,06,09,14,16.80
2013,07,06,09,15,16.80
2013,07,06,09,16,16.90
2013,07,06,09,17,16.90
2013,07,06,09,18,16.80
2013,07,06,09,19,16.80
2013,07,06,09,20,16.80
2013,07,06,09,21,16.90
2013,07,06,09,22,16.90
2013,07,06,09,23,16.90
2013,07,06,09,24,16.90
2013,07,06,09,25,17.00
2013,07,06,09,26,17.00
2013,07,06,09,27,17.10
2013,07,06,09,28,17.10
2013,07,06,09,29,17.20
2013,07,06,09,30,17.20
2013,07,06,09,31,17.30
2013,07,06,09,32,17.30
2013,07,06,09,33,17.20
2013,07,06,09,34,17.10
2013,07,06,09,35,17.10
2013,07,06,09,36,17.00
2013,07,06,09,37,16.90
2013,07,06,09,38,16.90
2013,07,06,09,39,16.90
2013,07,06,09,40,16.90
2013,07,06,09,41,16.90
2013,07,06,09,42,16.90
2013,07,06,09,43,16.90
2013,07,06,09,44,16.90
2013,07,06,09,45,16.90
2013,07,06,09,46,16.90
2013,07,06,09,47,17.00
2013,07,06,09,48,17.00
2013,07,06,09,49,17.10
2013,07,06,09,50,17.20
2013,07,06,09,51,17.30
2013,07,06,09,52,17.40
2013,07,06,09,53,17.50
2013,07,06,09,54,17.60
2013,07,06,09,55,17.70
2013,07,06,09,56,17.80
2013,07,06,09,57,17.90
2013,07,06,09,58,18.10
2013,07,06,09,59,18.20
2013,07,06,10,00,18.20
2013,07,06,10,01,18.20
2013,07,06,10,02,18.20
2013,07,06,10,03,18.20
2013,07,06,10,04,18.20
2013,07,06,10,05,18.20
2013,07,06,10,06,18.20
2013,07,06,10,07,18.20
2013,07,06,10,08,18.30
2013,07,06,10,09,18.30
2013,07,06,10,10,18.30
2013,07,06,10,11,18.40
2013,07,06,10,12,18.40
2013,07,06,10,13,18.40
2013,07,06,10,14,18.40
2013,07,06,10,15,18.30
2013,07,06,10,16,18.30
2013,07,06,10,17,18.30
2013,07,06,10,18,18.30
2013,07,06,10,19,18.30
2013,07,06,10,20,18.30
2013,07,06,10,21,18.20
2013,07,06,10,22,18.20
2013,07,06,10,23,18.20
2013,07,06,10,24,18.20
2013,07,06,10,25,18.20
2013,07,06,10,26,18.20
2013,07,06,10,27,18.20
2013,07,06,10,28,18.20
2013,07,06,10,29,18.20
2013,07,06,10,30,18.20
2013,07,06,10,31,18.20
2013,07,06,10,32,18.30
2013,07,06,10,33,18.30
2013,07,06,10,34,18.30
2013,07,06,10,35,18.40
2013,07,06,10,36,18.40
2013,07,06,10,37,18.40
2013,07,06,10,38,18.50
2013,07,06,10,39,18.60
2013,07,06,10,40,18.60
2013,07,06,10,41,18.60
2013,07,06,10,42,18.70
2013,07,06,10,43,18.70
2013,07,06,10,44,18.80
2013,07,06,10,45,18.90
2013,07,06,10,46,19.00
2013,07,06,10,47,19.00
2013,07,06,10,48,19.10
2013,07,06,10,49,19.20
2013,07,06,10,50,19.20
2013,07,06,10,51,19.30
2013,07,06,10,52,19.30
2013,07,06,10,53,19.40
2013,07,06,10,54,19.40
2013,07,06,10,55,19.40
2013,07,06,10,56,19.40
2013,07,06,10,57,19.40
2013,07,06,10,58,19.40
2013,07,06,10,59,19.40
2013,07,06,11,00,19.40
2013,07,06,11,01,19.50
2013,07,06,11,02,19.50
2013,07,06,11,03,19.60
2013,07,06,11,04,19.70
2013,07,06,11,05,19.80
2013,07,06,11,06,19.90
2013,07,06,11,07,20.00
2013,07,06,11,08,20.00
2013,07,06,11,09,20.00
2013,07,06,11,10,20.10
2013,07,06,11,11,20.00
2013,07,06,11,12,20.10
2013,07,06,11,13,20.10
2013,07,06,11,14,20.10
2013,07,06,11,15,20.10
2013,07,06,11,16,20.10
2013,07,06,11,17,20.20
2013,07,06,11,18,20.20
2013,07,06,11,19,20.30
2013,07,06,11,20,20.30
2013,07,06,11,21,20.40
2013,07,06,11,22,20.50
2013,07,06,11,23,20.60
2013,07,06,11,24,20.70
2013,07,06,11,25,20.70
2013,07,06,11,26,20.80
2013,07,06,11,27,20.80
2013,07,06,11,28,20.90
2013,07,06,11,29,20.90
2013,07,06,11,30,20.90
2013,07,06,11,31,21.00
2013,07,06,11,32,21.10
2013,07,06,11,33,21.10
2013,07,06,11,34,21.10
2013,07,06,11,35,21.10
2013,07,06,11,36,21.00
2013,07,06,11,37,21.00
2013,07,06,11,38,21.00
2013,07,06,11,39,21.00
2013,07,06,11,40,21.00
2013,07,06,11,41,21.00
2013,07,06,11,42,21.00
2013,07,06,11,43,21.00
2013,07,06,11,44,21.10
2013,07,06,11,45,21.20
2013,07,06,11,46,21.20
2013,07,06,11,47,21.30
2013,07,06,11,48,21.30
2013,07,06,11,49,21.30
2013,07,06,11,50,21.40
2013,07,06,11,51,21.50
2013,07,06,11,52,21.50
2013,07,06,11,53,21.60
2013,07,06,11,54,21.70
2013,07,06,11,55,21.70
2013,07,06,11,56,21.80
2013,07,06,11,57,21.80
2013,07,06,11,58,21.90
2013,07,06,11,59,22.00
2013,07,06,12,00,22.00
2013,07,06,12,01,22.00
2013,07,06,12,02,22.00
2013,07,06,12,03,22.00
2013,07,06,12,04,22.00
2013,07,06,12,05,22.10
2013,07,06,12,06,22.20
2013,07,06,12,07,22.20
2013,07,06,12,08,22.30
2013,07,06,12,09,22.40
2013,07,06,12,10,22.50
2013,07,06,12,11,22.60
2013,07,06,12,12,22.70
2013,07,06,12,13,22.80
2013,07,06,12,14,22.90
2013,07,06,12,15,23.00
2013,07,06,12,16,23.10
2013,07,06,12,17,23.20
2013,07,06,12,18,23.30
2013,07,06,12,19,23.30
2013,07,06,12,20,23.30
2013,07,06,12,21,23.20
2013,07,06,12,22,23.20
2013,07,06,12,23,23.20
2013,07,06,12,24,23.20
2013,07,06,12,25,23.20
2013,07,06,12,26,23.20
2013,07,06,12,27,23.30
2013,07,06,12,28,23.30
2013,07,06,12,29,23.30
2013,07,06,12,30,23.30
2013,07,06,12,31,23.30
2013,07,06,12,32,23.30
2013,07,06,12,33,23.30
2013,07,06,12,34,23.30
2013,07,06,12,35,23.30
2013,07,06,12,36,23.30
2013,07,06,12,37,23.40
2013,07,06,12,38,23.50
2013,07,06,12,39,23.50
2013,07,06,12,40,23.60
2013,07,06,12,41,23.70
2013,07,06,12,42,23.80
2013,07,06,12,43,23.80
2013,07,06,12,44,23.70
2013,07,06,12,45,23.80
2013,07,06,12,46,23.80
2013,07,06,12,47,23.80
2013,07,06,12,48,23.80
2013,07,06,12,49,23.70
2013,07,06,12,50,23.70
2013,07,06,12,51,23.70
2013,07,06,12,52,23.70
2013,07,06,12,53,23.80
2013,07,06,12,54,23.90
2013,07,06,12,55,23.90
2013,07,06,12,56,23.90
2013,07,06,12,57,24.00
2013,07,06,12,58,24.00
2013,07,06,12,59,24.10
2013,07,06,13,00,24.10
2013,07,06,13,01,24.20
2013,07,06,13,02,24.20
2013,07,06,13,03,24.20
2013,07,06,13,04,24.30
2013,07,06,13,05,24.40
2013,07,06,13,06,24.60
2013,07,06,13,07,24.70
2013,07,06,13,08,24.80
2013,07,06,13,09,24.80
2013,07,06,13,10,24.70
2013,07,06,13,11,24.70
2013,07,06,13,12,24.60
2013,07,06,13,13,24.60
2013,07,06,13,14,24.70
2013,07,06,13,15,24.70
2013,07,06,13,16,24.90
2013,07,06,13,17,25.00
2013,07,06,13,18,25.20
2013,07,06,13,19,25.20
2013,07,06,13,20,25.30
2013,07,06,13,21,25.30
2013,07,06,13,22,25.40
2013,07,06,13,23,25.50
2013,07,06,13,24,25.40
2013,07,06,13,25,25.40
2013,07,06,13,26,25.30
2013,07,06,13,27,25.30
2013,07,06,13,28,25.30
2013,07,06,13,29,25.20
2013,07,06,13,30,25.20
2013,07,06,13,31,25.20
2013,07,06,13,32,25.30
2013,07,06,13,33,25.40
2013,07,06,13,34,25.50
2013,07,06,13,35,25.70
2013,07,06,13,36,25.90
2013,07,06,13,37,26.10
2013,07,06,13,38,26.20
2013,07,06,13,39,26.30
2013,07,06,13,40,26.40
2013,07,06,13,41,26.40
2013,07,06,13,42,26.50
2013,07,06,13,43,26.60
2013,07,06,13,44,26.70
2013,07,06,13,45,26.80
2013,07,06,13,46,26.80
2013,07,06,13,47,26.90
2013,07,06,13,48,26.90
2013,07,06,13,49,26.90
2013,07,06,13,50,26.90
2013,07,06,13,51,26.80
2013,07,06,13,52,26.70
2013,07,06,13,53,26.70
2013,07,06,13,54,26.60
2013,07,06,13,55,26.60
2013,07,06,13,56,26.50
2013,07,06,13,57,26.40
2013,07,06,13,58,26.30
2013,07,06,13,59,26.20
2013,07,06,14,00,26.20
2013,07,06,14,01,26.30
2013,07,06,14,02,26.40
2013,07,06,14,03,26.40
2013,07,06,14,04,26.40
2013,07,06,14,05,26.40
2013,07,06,14,06,26.50
2013,07,06,14,07,26.60
2013,07,06,14,08,26.70
2013,07,06,14,09,26.80
2013,07,06,14,10,26.80
2013,07,06,14,11,26.90
2013,07,06,14,12,27.00
2013,07,06,14,13,27.10
2013,07,06,14,14,27.20
2013,07,06,14,15,27.20
2013,07,06,14,16,27.30
2013,07,06,14,17,27.30
2013,07,06,14,18,27.30
2013,07,06,14,19,27.30
2013,07,06,14,20,27.40
2013,07,06,14,21,27.50
2013,07,06,14,22,27.60
2013,07,06,14,23,27.70
2013,07,06,14,24,27.70
2013,07,06,14,25,27.70
2013,07,06,14,26,27.60
2013,07,06,14,27,27.50
2013,07,06,14,28,27.40
2013,07,06,14,29,27.30
2013,07,06,14,30,27.30
2013,07,06,14,31,27.30
2013,07,06,14,32,27.30
2013,07,06,14,33,27.30
2013,07,06,14,34,27.40
2013,07,06,14,35,27.50
2013,07,06,14,36,27.70
2013,07,06,14,37,27.80
2013,07,06,14,38,27.80
2013,07,06,14,39,27.80
2013,07,06,14,40,27.80
2013,07,06,14,41,27.70
2013,07,06,14,42,27.70
2013,07,06,14,43,27.70
2013,07,06,14,44,27.80
2013,07,06,14,45,27.90
2013,07,06,14,46,28.00
2013,07,06,14,47,28.10
2013,07,06,14,48,28.00
2013,07,06,14,49,27.90
2013,07,06,14,50,27.80
2013,07,06,14,51,27.70
2013,07,06,14,52,27.70
2013,07,06,14,53,27.60
2013,07,06,14,54,27.50
2013,07,06,14,55,27.50
2013,07,06,14,56,27.40
2013,07,06,14,57,27.40
2013,07,06,14,58,27.40
2013,07,06,14,59,27.40
2013,07,06,15,00,27.40
2013,07,06,15,01,27.40
2013,07,06,15,02,27.50
2013,07,06,15,03,27.50
2013,07,06,15,04,27.50
2013,07,06,15,05,27.60
2013,07,06,15,06,27.60
2013,07,06,15,07,27.70
2013,07,06,15,08,27.70
2013,07,06,15,09,27.70
2013,07,06,15,10,27.60
2013,07,06,15,11,27.60
2013,07,06,15,12,27.50
2013,07,06,15,13,27.50
2013,07,06,15,14,27.50
2013,07,06,15,15,27.60
2013,07,06,15,16,27.60
2013,07,06,15,17,27.70
2013,07,06,15,18,27.70
2013,07,06,15,19,27.70
2013,07,06,15,20,27.70
2013,07,06,15,21,27.70
2013,07,06,15,22,27.60
2013,07,06,15,23,27.50
2013,07,06,15,24,27.50
2013,07,06,15,25,27.40
2013,07,06,15,26,27.40
2013,07,06,15,27,27.50
2013,07,06,15,28,27.50
2013,07,06,15,29,27.50
2013,07,06,15,30,27.60
2013,07,06,15,31,27.60
2013,07,06,15,32,27.60
2013,07,06,15,33,27.60
2013,07,06,15,34,27.60
2013,07,06,15,35,27.60
2013,07,06,15,36,27.60
2013,07,06,15,37,27.60
2013,07,06,15,38,27.60
2013,07,06,15,39,27.60
2013,07,06,15,40,27.60
2013,07,06,15,41,27.60
2013,07,06,15,42,27.60
2013,07,06,15,43,27.70
2013,07,06,15,44,27.70
2013,07,06,15,45,27.70
2013,07,06,15,46,27.70
2013,07,06,15,47,27.70
2013,07,06,15,48,27.80
2013,07,06,15,49,27.90
2013,07,06,15,50,27.90
2013,07,06,15,51,27.90
2013,07,06,15,52,27.90
2013,07,06,15,53,28.00
2013,07,06,15,54,28.00
2013,07,06,15,55,28.00
2013,07,06,15,56,28.10
2013,07,06,15,57,28.10
2013,07,06,15,58,28.10
2013,07,06,15,59,28.10
2013,07,06,16,00,28.10
2013,07,06,16,01,28.00
2013,07,06,16,02,28.00
2013,07,06,16,03,28.00
2013,07,06,16,04,27.90
2013,07,06,16,05,28.00
2013,07,06,16,06,28.00
2013,07,06,16,07,28.00
2013,07,06,16,08,27.90
2013,07,06,16,09,27.90
2013,07,06,16,10,28.00
2013,07,06,16,11,28.10
2013,07,06,16,12,28.20
2013,07,06,16,13,28.20
2013,07,06,16,14,28.30
2013,07,06,16,15,28.30
2013,07,06,16,16,28.30
2013,07,06,16,17,28.30
2013,07,06,16,18,28.40
2013,07,06,16,19,28.40
2013,07,06,16,20,28.40
2013,07,06,16,21,28.40
2013,07,06,16,22,28.40
2013,07,06,16,23,28.30
2013,07,06,16,24,28.30
2013,07,06,16,25,28.30
2013,07,06,16,26,28.40
2013,07,06,16,27,28.50
2013,07,06,16,28,28.50
2013,07,06,16,29,28.50
2013,07,06,16,30,28.50
2013,07,06,16,31,28.50
2013,07,06,16,32,28.50
2013,07,06,16,33,28.40
2013,07,06,16,34,28.40
2013,07,06,16,35,28.40
2013,07,06,16,36,28.50
2013,07,06,16,37,28.60
2013,07,06,16,38,28.70
2013,07,06,16,39,28.80
2013,07,06,16,40,28.80
2013,07,06,16,41,28.90
2013,07,06,16,42,28.90
2013,07,06,16,43,29.00
2013,07,06,16,44,29.10
2013,07,06,16,45,29.10
2013,07,06,16,46,29.20
2013,07,06,16,47,29.20
2013,07,06,16,48,29.30
2013,07,06,16,49,29.30
2013,07,06,16,50,29.40
2013,07,06,16,51,29.60
2013,07,06,16,52,29.60
2013,07,06,16,53,29.70
2013,07,06,16,54,29.80
2013,07,06,16,55,29.90
2013,07,06,16,56,30.00
2013,07,06,16,57,30.00
2013,07,06,16,58,30.10
2013,07,06,16,59,30.00
2013,07,06,17,00,29.90
2013,07,06,17,01,29.90
2013,07,06,17,02,29.70
2013,07,06,17,03,29.60
2013,07,06,17,04,29.40
2013,07,06,17,05,29.30
2013,07,06,17,06,29.30
2013,07,06,17,07,29.30
2013,07,06,17,08,29.30
2013,07,06,17,09,29.40
2013,07,06,17,10,29.30
2013,07,06,17,11,29.30
2013,07,06,17,12,29.20
2013,07,06,17,13,29.00
2013,07,06,17,14,28.80
2013,07,06,17,15,28.70
2013,07,06,17,16,28.60
2013,07,06,17,17,28.50
2013,07,06,17,18,28.50
2013,07,06,17,19,28.60
2013,07,06,17,20,28.60
2013,07,06,17,21,28.70
2013,07,06,17,22,28.90
2013,07,06,17,23,29.00